STARLINK-37194, 68397

Orbit data source: Space-Track

STARLINK-37194, 68397 is a payload satellite owned by SpaceX/Seattle (US) in SSO that was launched on Thu, 26 Mar 2026 UTC via an FALCON 9 launch vehicle from the Air Force Western Test Range (AFWTR). Payload-class satellites include a variety of spacecraft equipped with specific instruments for various scientific and technological missions. These include communications satellites like Starlink; space stations such as the ISS; scientific satellites like the Hubble; Earth observation satellites from companies like Planet Labs, Umbra, and HawkEye 360; GPS; miniature CubeSats for education and research; and military/defense satellites.

Loading next visibility...
Identifier
68397, 2026-063T
Orbit
SSO
Country
Flag of USUS
Related business
Manufacturer
SpaceX/Seattle
Mission
Operational spacecraft
Bus & Motor
STARLINK V2MO, Unknown motor
Mass
575 kg wet, ~530 kg dry
Launch date (UTC)
2026-03-26 (3 months ago)
Launch vehicle
FALCON 9
Launch site
Air Force Western Test Range (AFWTR)
Object type
Payload
Rocket body
Debris
Shape & HBR
Unknown shape, 17.7 m
Radar Cross Section
Large (>1 m²)

Expand to show TLE details & history
Last TLE update: 9 hours ago

TLE from 9 hours ago
0 STARLINK-37194
1 68397U 26063T   26165.90749553  .00009744  00000-0  30377-3 0  9999
2 68397  97.2856 308.1682 0000783  93.6241 266.5091 15.33445214 12793
Epoch: 2026-06-14T21:46Z
TLE epoch observation values (Epoch: 2026-06-14T21:46:47.613Z)
Latitude
-0.00007°
Longitude
78.26832°
Altitude
468.687 km
Speed
7.632 km/s
True Right ascension
20h 32m 40s
True Declination
0° 00' 00"
Sunlit
Object was in full shadow at epoch
Visualization orbit readout
Latitude
Unknown
Longitude
Unknown
Altitude
Unknown
Speed
Unknown
Apparent Right ascension
Unknown
Apparent Declination
Unknown
Sunlit
N/A
Visualization observer readout
Local Sidereal Time
17:09:48
Azimuth
Unknown
Elevation
Unknown
Doppler factor
Unknown
Orbital elements
Apogee altitude
463.021 km
Perigee altitude
461.95 km
Semi-major axis
6,840.622 km
Eccentricity
0.00008
Inclination
97.2856°
RAAN
308.1682°
Arg. of periapsis
93.6241°
True anomaly
266.50014°
Mean anomaly
266.5091°
Eccentric anomaly
266.50462°
Mean motion
3.83619 °/min
Orbital period
93.84 mins
BSTAR
0.00030377
Loading maneuver chart data...
Computing Atmospheric mass density...
Loading historical data...
Loading historical data...
Loading historical data...
Loading historical data...
Loading historical data...
Loading historical data...
Loading historical data...

Documentation

Showing up to 5 results
|